When you browse on this site, cookies collect data to enhance your experience and personalize the content and advertising you see.
Visit our Privacy Policy to learn more. By continuing to use the site, you agree to this use of cookies and data.
  • In Hungary
  • List of Countries
  • For 7 days
  • Water Temperature
  • Weather Map
  • News
  • Weather Widgets
  • user-avatar
    Login

    Hourly Weather Verhnyaya Kamenka

    Today, 22 October, Tuesday

    Time Temperature Precipitation Wind Pressure Humidity
    00:00 +8°C° 0 mm 9 mps 750 mmHg 85%
    01:00 +8°C° 1 mm 9 mps 750 mmHg 87%
    02:00 +8°C° 1 mm 9 mps 749 mmHg 89%
    03:00 +9°C° 0 mm 8 mps 749 mmHg 91%
    04:00 +9°C° 1.8 mm 7 mps 749 mmHg 93%
    05:00 +9°C° 1.8 mm 5 mps 749 mmHg 94%
    06:00 +10°C° 1.8 mm 4 mps 749 mmHg 95%
    07:00 +10°C° 0 mm 4 mps 750 mmHg 93%
    08:00 +10°C° 0 mm 4 mps 750 mmHg 90%
    09:00 +10°C° 0 mm 4 mps 751 mmHg 86%
    10:00 +10°C° 0.1 mm 4 mps 751 mmHg 83%
    11:00 +10°C° 0.1 mm 4 mps 751 mmHg 80%
    12:00 +10°C° 0.1 mm 4 mps 752 mmHg 77%
    13:00 +8°C° 0 mm 4 mps 752 mmHg 75%
    14:00 +8°C° 0 mm 4 mps 752 mmHg 74%
    15:00 +8°C° 0 mm 4 mps 752 mmHg 73%
    16:00 +7°C° 0 mm 4 mps 752 mmHg 74%
    17:00 +8°C° 0 mm 3 mps 752 mmHg 74%
    18:00 +7°C° 0 mm 3 mps 753 mmHg 75%
    19:00 +7°C° 0 mm 3 mps 753 mmHg 77%
    20:00 +6°C° 0 mm 2 mps 753 mmHg 79%
    21:00 +6°C° 0 mm 2 mps 753 mmHg 81%
    22:00 +6°C° 0 mm 1 mps 753 mmHg 83%
    23:00 +6°C° 0 mm 1 mps 753 mmHg 85%

    Tomorrow, 23 October, Wednesday

    Time Temperature Precipitation Wind Pressure Humidity
    00:00 +5°C° 0 mm 1 mps 753 mmHg 86%
    01:00 +5°C° 0 mm 1 mps 753 mmHg 87%
    02:00 +5°C° 0 mm 1 mps 753 mmHg 88%
    03:00 +3°C° 0 mm 2 mps 753 mmHg 89%
    04:00 +3°C° 0 mm 2 mps 753 mmHg 91%
    05:00 +3°C° 0 mm 2 mps 752 mmHg 92%
    06:00 +2°C° 0 mm 3 mps 752 mmHg 94%
    07:00 +3°C° 0 mm 3 mps 752 mmHg 90%
    08:00 +4°C° 0 mm 4 mps 751 mmHg 85%
    09:00 +5°C° 0 mm 5 mps 751 mmHg 81%
    10:00 +5°C° 0 mm 6 mps 751 mmHg 78%
    11:00 +7°C° 0 mm 6 mps 750 mmHg 75%
    12:00 +8°C° 0 mm 7 mps 750 mmHg 72%
    13:00 +8°C° 0 mm 7 mps 749 mmHg 73%
    14:00 +8°C° 0 mm 6 mps 749 mmHg 74%
    15:00 +9°C° 0 mm 6 mps 748 mmHg 76%
    16:00 +8°C° 0 mm 6 mps 748 mmHg 78%
    17:00 +8°C° 0 mm 6 mps 748 mmHg 81%
    18:00 +8°C° 0 mm 5 mps 748 mmHg 83%
    19:00 +8°C° 0 mm 5 mps 748 mmHg 87%
    20:00 +8°C° 0 mm 4 mps 748 mmHg 90%
    21:00 +8°C° 0 mm 4 mps 748 mmHg 93%
    22:00 +8°C° 0 mm 4 mps 748 mmHg 93%
    23:00 +8°C° 0 mm 4 mps 748 mmHg 94%

    Day after tomorrow, 24 October, Thursday

    Time Temperature Precipitation Wind Pressure Humidity
    00:00 +8°C° 0 mm 4 mps 748 mmHg 94%
    01:00 +8°C° 0 mm 3 mps 749 mmHg 93%
    02:00 +8°C° 0 mm 3 mps 749 mmHg 92%
    03:00 +8°C° 0 mm 3 mps 749 mmHg 91%
    04:00 +7°C° 0 mm 3 mps 749 mmHg 92%
    05:00 +7°C° 0 mm 3 mps 750 mmHg 92%
    06:00 +7°C° 0 mm 2 mps 750 mmHg 93%
    07:00 +7°C° 0 mm 3 mps 750 mmHg 90%
    08:00 +8°C° 0 mm 3 mps 750 mmHg 87%
    09:00 +8°C° 0 mm 3 mps 751 mmHg 83%
    10:00 +9°C° 0 mm 3 mps 751 mmHg 77%
    11:00 +10°C° 0 mm 3 mps 751 mmHg 71%
    12:00 +11°C° 0 mm 3 mps 752 mmHg 66%
    13:00 +11°C° 0 mm 3 mps 752 mmHg 67%
    14:00 +10°C° 0 mm 3 mps 752 mmHg 68%
    15:00 +10°C° 0 mm 2 mps 752 mmHg 70%
    16:00 +9°C° 0 mm 2 mps 752 mmHg 74%
    17:00 +8°C° 0 mm 2 mps 752 mmHg 78%
    18:00 +7°C° 0 mm 2 mps 753 mmHg 83%
    19:00 +8°C° 0 mm 1 mps 753 mmHg 84%
    20:00 +8°C° 0 mm 1 mps 753 mmHg 86%
    21:00 +7°C° 0 mm 1 mps 753 mmHg 88%
    22:00 +7°C° 0 mm 1 mps 753 mmHg 88%
    23:00 +7°C° 0 mm 1 mps 754 mmHg 89%

    25 October, Friday

    Time Temperature Precipitation Wind Pressure Humidity
    00:00 +6°C° 0 mm 1 mps 754 mmHg 90%
    01:00 +6°C° 0 mm 1 mps 754 mmHg 90%
    02:00 +6°C° 0 mm 1 mps 754 mmHg 90%
    03:00 +6°C° 0 mm 1 mps 754 mmHg 90%
    04:00 +6°C° 0 mm 1 mps 754 mmHg 90%
    05:00 +4°C° 0 mm 0 mps 754 mmHg 90%
    06:00 +4°C° 0 mm 0 mps 754 mmHg 90%
    07:00 +5°C° 0 mm 0 mps 754 mmHg 88%
    08:00 +6°C° 0 mm 0 mps 754 mmHg 85%
    09:00 +7°C° 0 mm 0 mps 755 mmHg 83%
    10:00 +9°C° 0 mm 1 mps 755 mmHg 79%
    11:00 +10°C° 0 mm 1 mps 754 mmHg 76%
    12:00 +11°C° 0 mm 1 mps 754 mmHg 72%
    13:00 +11°C° 0 mm 1 mps 754 mmHg 74%
    14:00 +11°C° 0 mm 1 mps 754 mmHg 75%
    15:00 +11°C° 0 mm 1 mps 754 mmHg 76%
    16:00 +10°C° 0 mm 1 mps 754 mmHg 81%
    17:00 +9°C° 0 mm 1 mps 754 mmHg 85%
    18:00 +8°C° 0 mm 1 mps 755 mmHg 89%
    19:00 +8°C° 0 mm 1 mps 755 mmHg 90%
    20:00 +7°C° 0 mm 1 mps 755 mmHg 91%
    21:00 +7°C° 0 mm 1 mps 755 mmHg 92%
    22:00 +7°C° 0 mm 1 mps 755 mmHg 92%
    23:00 +7°C° 0 mm 1 mps 755 mmHg 93%

    26 October, Saturday

    Time Temperature Precipitation Wind Pressure Humidity
    00:00 +6°C° 0 mm 1 mps 755 mmHg 93%
    01:00 +6°C° 0 mm 1 mps 755 mmHg 93%
    02:00 +6°C° 0 mm 1 mps 755 mmHg 92%
    03:00 +6°C° 0 mm 1 mps 755 mmHg 92%
    04:00 +6°C° 0 mm 1 mps 755 mmHg 92%
    05:00 +5°C° 0 mm 2 mps 755 mmHg 92%
    06:00 +4°C° 0 mm 2 mps 755 mmHg 92%
    07:00 +5°C° 0 mm 2 mps 755 mmHg 89%
    08:00 +6°C° 0 mm 2 mps 755 mmHg 86%
    09:00 +7°C° 0 mm 3 mps 755 mmHg 82%
    10:00 +9°C° 0 mm 3 mps 755 mmHg 78%
    11:00 +10°C° 0 mm 4 mps 755 mmHg 73%
    12:00 +10°C° 0 mm 5 mps 754 mmHg 69%
    13:00 +10°C° 0 mm 5 mps 754 mmHg 71%
    14:00 +10°C° 0 mm 5 mps 754 mmHg 74%
    15:00 +10°C° 0 mm 5 mps 753 mmHg 76%
    16:00 +9°C° 0 mm 5 mps 753 mmHg 81%
    17:00 +9°C° 0 mm 5 mps 753 mmHg 86%
    18:00 +8°C° 0 mm 5 mps 753 mmHg 90%
    19:00 +8°C° 0 mm 5 mps 753 mmHg 90%
    20:00 +8°C° 0 mm 5 mps 753 mmHg 89%
    21:00 +8°C° 0 mm 5 mps 753 mmHg 89%
    22:00 +8°C° 0 mm 5 mps 752 mmHg 89%
    23:00 +8°C° 0 mm 5 mps 752 mmHg 89%

    27 October, Sunday

    Time Temperature Precipitation Wind Pressure Humidity
    00:00 +8°C° 0 mm 5 mps 752 mmHg 89%
    01:00 +7°C° 0 mm 5 mps 752 mmHg 90%
    02:00 +7°C° 0 mm 5 mps 752 mmHg 90%
    03:00 +7°C° 0 mm 5 mps 752 mmHg 90%
    04:00 +7°C° 0 mm 5 mps 752 mmHg 90%
    05:00 +7°C° 0 mm 5 mps 751 mmHg 89%
    06:00 +7°C° 0 mm 5 mps 751 mmHg 89%
    07:00 +7°C° 0 mm 5 mps 751 mmHg 84%
    08:00 +8°C° 0 mm 6 mps 751 mmHg 79%
    09:00 +9°C° 0 mm 6 mps 751 mmHg 75%
    10:00 +10°C° 0 mm 7 mps 751 mmHg 69%
    11:00 +11°C° 0 mm 7 mps 750 mmHg 64%
    12:00 +12°C° 0 mm 7 mps 750 mmHg 58%
    13:00 +11°C° 0 mm 7 mps 750 mmHg 59%
    14:00 +11°C° 0 mm 7 mps 749 mmHg 60%
    15:00 +11°C° 0 mm 7 mps 749 mmHg 60%
    16:00 +10°C° 0 mm 6 mps 749 mmHg 63%
    17:00 +10°C° 0 mm 6 mps 748 mmHg 66%
    18:00 +9°C° 0 mm 6 mps 748 mmHg 69%
    19:00 +9°C° 0 mm 7 mps 748 mmHg 72%
    20:00 +9°C° 0 mm 7 mps 747 mmHg 76%
    21:00 +9°C° 0 mm 7 mps 747 mmHg 79%
    22:00 +8°C° 0 mm 7 mps 747 mmHg 78%
    23:00 +8°C° 0 mm 7 mps 746 mmHg 78%

    28 October, Monday

    Time Temperature Precipitation Wind Pressure Humidity
    00:00 +8°C° 0 mm 7 mps 746 mmHg 77%
    01:00 +8°C° 0 mm 7 mps 745 mmHg 77%
    02:00 +8°C° 0 mm 7 mps 745 mmHg 76%
    03:00 +6°C° 0 mm 7 mps 744 mmHg 76%
    04:00 +6°C° 0 mm 7 mps 744 mmHg 76%
    05:00 +6°C° 0 mm 7 mps 743 mmHg 76%
    06:00 +6°C° 0 mm 7 mps 743 mmHg 76%
    07:00 +6°C° 0 mm 8 mps 742 mmHg 74%
    08:00 +7°C° 0 mm 8 mps 742 mmHg 72%
    09:00 +9°C° 0 mm 8 mps 741 mmHg 71%
    10:00 +8°C° 0 mm 9 mps 741 mmHg 68%
    11:00 +10°C° 0 mm 9 mps 740 mmHg 66%
    12:00 +11°C° 0 mm 9 mps 740 mmHg 63%
    13:00 +11°C° 0.1 mm 9 mps 739 mmHg 63%
    14:00 +11°C° 0.1 mm 8 mps 738 mmHg 63%
    15:00 +10°C° 0.1 mm 7 mps 738 mmHg 63%
    16:00 +10°C° 0.9 mm 8 mps 737 mmHg 70%
    17:00 +9°C° 0.9 mm 8 mps 737 mmHg 76%
    18:00 +7°C° 0.9 mm 8 mps 736 mmHg 83%
    19:00 +8°C° 0.7 mm 7 mps 736 mmHg 84%
    20:00 +7°C° 0.7 mm 6 mps 736 mmHg 86%
    21:00 +7°C° 0.7 mm 5 mps 735 mmHg 87%
    22:00 +6°C° 0.2 mm 5 mps 736 mmHg 86%
    23:00 +5°C° 0.2 mm 5 mps 736 mmHg 85%
    Show more